Location: Caixon
(43.4106°N, 0.0273°E)
Time: 14:19:53
(UTC+00:00)

IRIDIUM 106 - Pass Details

Date: 16 October 2021
Orbit: 776 x 779 km, 86.4° (Epoch: 29 November)

Event Time Altitude Azimuth Distance (km) Brightness Sun altitude
Exits shadow 04:04:13 50° 199° (SSW) 984 4.6 -24.4°
Maximum altitude 04:05:35 77° 273° (W) 803 4.2 -24.2°
Drops below altitude 10° 04:10:50 10° 0° (N) 2,341 6.9 -23.3°
Sets 04:13:12 0° 2° (N) 3,274 7.7 -22.8°
